Location: Shaver Recreation Center
(34.6784°N, 82.9656°W)
Time: 07:52:54
(UTC-04:00)

Tiangong 2 - Visible Passes

Search period start: 24 May 2019 00:00
Search period end: 03 June 2019 00:00
Orbit: 379 x 387 km, 42.8° (Epoch: 24 May)

Date Brightness Start Highest point End Pass type
(mag) Time Alt. Az. Time Alt. Az. Time Alt. Az.
24 May 3.7 22:21:17 10° NW 22:23:32 18° N 22:25:37 11° NE visible
25 May 3.7 21:20:56 10° NW 21:23:15 19° N 21:25:35 10° NE visible
25 May 3.3 22:58:03 10° NW 23:00:24 22° N 23:00:24 22° N visible
26 May 3.5 21:58:02 10° NW 22:00:22 19° N 22:02:43 10° NE visible
26 May 4.2 23:34:30 10° NW 23:35:08 15° NW 23:35:08 15° NW visible
27 May 2.5 22:34:34 10° NW 22:37:24 30° NNE 22:37:41 29° NNE visible
28 May 3.1 21:34:37 10° NW 21:37:10 22° NNE 21:39:44 10° ENE visible
28 May 3.4 23:11:02 10° WNW 23:12:23 23° WNW 23:12:23 23° WNW visible
29 May 1.8 22:11:03 10° NW 22:14:05 46° NNE 22:14:56 35° ENE visible
30 May 2.6 21:11:06 10° NW 21:13:55 30° NNE 21:16:43 10° E visible
30 May 2.6 22:47:41 10° WNW 22:49:40 32° W 22:49:40 32° W visible
31 May 1.0 21:47:33 10° WNW 21:50:41 84° NNE 21:52:15 27° ESE visible
01 Jun 2.7 22:24:33 10° W 22:27:03 24° SW 22:27:03 24° SW visible
02 Jun 1.6 21:24:09 10° WNW 21:27:11 48° SSW 21:29:44 13° SE visible
